Time,TemperatureF,DewpointF,PressureIn,WindDirection,WindDirectionDegrees,WindSpeedMPH,WindSpeedGustMPH,Humidity,HourlyPrecipIn,Conditions,Clouds,dailyrainin,SoftwareType,DateUTC
2013-10-30 00:00:00,33.4,31.3,28.78,SW,225,0.0,0.0,92,0.02,,---,0.01,VWS V14.01,2013-10-30 06:00:00,
2013-10-30 00:30:00,33.4,31.3,28.78,SW,225,0.0,0.0,92,0.02,,---,0.01,VWS V14.01,2013-10-30 06:30:00,
2013-10-30 01:00:00,33.7,31.9,28.78,SW,225,0.0,0.0,93,0.02,,---,0.02,VWS V14.01,2013-10-30 07:00:00,
2013-10-30 01:30:00,34.0,32.2,28.78,SSW,202,0.0,1.0,93,0.01,,---,0.02,VWS V14.01,2013-10-30 07:30:00,
2013-10-30 02:00:00,33.4,31.6,28.79,SSW,202,0.0,0.0,93,0.01,,---,0.02,VWS V14.01,2013-10-30 08:00:00,
2013-10-30 02:30:00,33.4,31.6,28.81,SSW,202,0.0,0.0,93,0.00,,---,0.02,VWS V14.01,2013-10-30 08:30:00,
2013-10-30 03:00:00,33.2,31.4,28.81,SSW,202,0.0,0.0,93,0.00,,---,0.02,VWS V14.01,2013-10-30 09:00:00,
2013-10-30 03:30:00,33.4,31.6,28.83,SSW,202,0.0,0.0,93,0.00,,---,0.02,VWS V14.01,2013-10-30 09:30:00,
2013-10-30 04:00:00,33.3,31.5,28.83,SSW,202,0.0,0.0,93,0.00,,---,0.02,VWS V14.01,2013-10-30 10:00:00,
2013-10-30 04:30:00,32.9,31.1,28.86,SSW,202,0.0,0.0,93,0.00,,---,0.02,VWS V14.01,2013-10-30 10:30:00,
2013-10-30 05:00:00,32.9,31.1,28.86,SSW,202,0.0,1.0,93,0.00,,---,0.02,VWS V14.01,2013-10-30 11:00:00,
2013-10-30 05:30:00,32.9,30.8,28.87,SSW,202,0.0,5.0,92,0.00,,---,0.02,VWS V14.01,2013-10-30 11:30:00,
2013-10-30 06:00:00,33.2,30.9,28.87,SSW,202,0.0,1.0,91,0.00,,---,0.02,VWS V14.01,2013-10-30 12:00:00,
2013-10-30 06:30:00,33.2,30.9,28.87,SSW,202,0.0,1.0,91,0.00,,---,0.02,VWS V14.01,2013-10-30 12:30:00,
2013-10-30 07:00:00,33.2,30.9,28.87,SSW,202,0.0,1.0,91,0.00,,---,0.02,VWS V14.01,2013-10-30 13:00:00,
2013-10-30 07:29:00,33.2,31.1,28.88,SSW,197,0.0,0.0,92,0.00,,---,0.01,VWS V14.01,2013-10-30 13:29:00,
2013-10-30 07:30:00,33.2,30.9,28.87,SSW,202,0.0,1.0,91,0.00,,---,0.02,VWS V14.01,2013-10-30 13:30:00,
2013-10-30 07:34:00,33.1,31.0,28.88,SSW,196,0.0,0.0,92,0.00,,---,0.01,VWS V14.01,2013-10-30 13:34:00,
2013-10-30 07:39:00,33.1,31.0,28.88,SSW,197,0.0,0.0,92,0.00,,---,0.01,VWS V14.01,2013-10-30 13:39:00,
2013-10-30 07:44:00,33.1,31.0,28.88,SSW,196,0.0,0.0,92,0.00,,---,0.01,VWS V14.01,2013-10-30 13:44:00,
2013-10-30 07:49:00,33.1,31.0,28.88,SSW,197,0.0,0.0,92,0.00,,---,0.01,VWS V14.01,2013-10-30 13:49:00,
2013-10-30 07:54:00,33.2,31.1,28.88,SSW,197,0.0,0.0,92,0.00,,---,0.01,VWS V14.01,2013-10-30 13:54:00,
2013-10-30 07:59:00,33.2,31.1,28.88,SSW,197,0.0,0.0,92,0.00,,---,0.01,VWS V14.01,2013-10-30 13:59:00,
2013-10-30 08:04:00,33.2,31.1,28.88,SSW,197,0.0,0.0,92,0.00,,---,0.01,VWS V14.01,2013-10-30 14:04:00,
2013-10-30 08:09:00,33.3,31.2,28.91,SSW,197,0.0,0.0,92,0.00,,---,0.01,VWS V14.01,2013-10-30 14:09:00,
2013-10-30 08:14:00,33.3,31.2,28.91,SSW,196,0.0,0.0,92,0.00,,---,0.01,VWS V14.01,2013-10-30 14:14:00,
2013-10-30 08:19:00,33.4,31.3,28.92,SSW,197,0.0,0.0,92,0.00,,---,0.01,VWS V14.01,2013-10-30 14:19:00,
2013-10-30 08:24:00,33.4,31.3,28.92,SSW,197,0.0,0.0,92,0.00,,---,0.01,VWS V14.01,2013-10-30 14:24:00,
2013-10-30 08:29:00,33.5,31.4,28.90,SSW,197,0.0,0.0,92,0.00,,---,0.01,VWS V14.01,2013-10-30 14:29:00,
2013-10-30 08:30:00,33.1,31.0,28.88,SSW,197,0.0,0.0,92,0.00,,---,0.01,VWS V14.01,2013-10-30 14:30:00,
2013-10-30 08:34:00,33.6,31.5,28.90,SSW,196,0.0,0.0,92,0.00,,---,0.01,VWS V14.01,2013-10-30 14:34:00,
2013-10-30 08:39:00,33.7,31.6,28.91,SSW,197,0.0,0.0,92,0.00,,---,0.01,VWS V14.01,2013-10-30 14:39:00,
2013-10-30 08:44:00,33.7,31.6,28.91,SSW,197,0.0,0.0,92,0.00,,---,0.01,VWS V14.01,2013-10-30 14:44:00,
2013-10-30 08:49:00,33.7,31.6,28.91,SSW,197,0.0,0.0,92,0.00,,---,0.01,VWS V14.01,2013-10-30 14:49:00,
2013-10-30 08:55:00,33.8,31.7,28.91,SSW,197,0.0,0.0,92,0.01,,---,0.02,VWS V14.01,2013-10-30 14:55:00,
2013-10-30 09:00:00,33.8,31.7,28.91,SSW,196,0.0,0.0,92,0.01,,---,0.02,VWS V14.01,2013-10-30 15:00:00,
2013-10-30 09:05:00,33.9,31.8,28.93,SSW,196,0.0,0.0,92,0.01,,---,0.02,VWS V14.01,2013-10-30 15:05:00,
2013-10-30 09:10:00,33.9,31.8,28.93,SSW,197,0.0,0.0,92,0.01,,---,0.02,VWS V14.01,2013-10-30 15:10:00,
2013-10-30 09:15:00,34.0,31.9,28.93,SSW,197,0.0,0.0,92,0.01,,---,0.02,VWS V14.01,2013-10-30 15:15:00,
2013-10-30 09:20:00,34.1,32.0,28.93,SSW,197,0.0,0.0,92,0.01,,---,0.02,VWS V14.01,2013-10-30 15:20:00,
2013-10-30 09:25:00,34.2,32.4,28.93,SSW,196,0.0,0.0,93,0.01,,---,0.02,VWS V14.01,2013-10-30 15:25:00,
2013-10-30 09:30:00,34.4,32.6,28.93,SSW,197,0.0,0.0,93,0.01,,---,0.02,VWS V14.01,2013-10-30 15:30:00,
2013-10-30 09:35:00,34.4,32.6,28.93,SSW,196,0.0,0.0,93,0.01,,---,0.02,VWS V14.01,2013-10-30 15:35:00,
2013-10-30 09:40:00,34.4,32.6,28.93,SSW,196,0.0,0.0,93,0.01,,---,0.02,VWS V14.01,2013-10-30 15:40:00,
2013-10-30 09:45:00,34.4,32.6,28.93,SSW,197,0.0,0.0,93,0.01,,---,0.02,VWS V14.01,2013-10-30 15:45:00,
2013-10-30 09:50:00,34.6,32.8,28.92,SSW,196,0.0,0.0,93,0.01,,---,0.02,VWS V14.01,2013-10-30 15:50:00,
2013-10-30 09:55:00,35.8,34.0,28.92,SSW,196,0.0,0.0,93,0.02,,---,0.03,VWS V14.01,2013-10-30 15:55:00,
2013-10-30 10:00:00,36.9,35.3,28.91,SSW,197,0.0,0.0,94,0.03,,---,0.04,VWS V14.01,2013-10-30 16:00:00,
2013-10-30 10:05:00,37.0,35.2,28.92,SSW,207,0.0,0.0,93,0.02,,---,0.04,VWS V14.01,2013-10-30 16:05:00,
2013-10-30 10:10:00,37.0,35.2,28.92,SSW,207,0.0,0.0,93,0.03,,---,0.05,VWS V14.01,2013-10-30 16:10:00,
2013-10-30 10:15:00,37.0,35.2,28.92,SSW,208,0.0,0.0,93,0.04,,---,0.06,VWS V14.01,2013-10-30 16:15:00,
2013-10-30 10:20:00,36.9,35.1,28.92,SSW,208,0.0,0.0,93,0.04,,---,0.06,VWS V14.01,2013-10-30 16:20:00,
2013-10-30 10:25:00,37.4,35.6,28.92,SSW,207,0.0,0.0,93,0.05,,---,0.07,VWS V14.01,2013-10-30 16:25:00,
2013-10-30 10:30:00,37.7,35.9,28.91,SSW,207,0.0,0.0,93,0.06,,---,0.08,VWS V14.01,2013-10-30 16:30:00,
2013-10-30 10:35:00,38.3,36.2,28.90,SSW,208,0.0,0.0,92,0.07,,---,0.09,VWS V14.01,2013-10-30 16:35:00,
2013-10-30 10:40:00,38.6,36.5,28.90,SSW,208,0.0,0.0,92,0.08,,---,0.10,VWS V14.01,2013-10-30 16:40:00,
2013-10-30 10:45:00,39.2,36.8,28.90,SSW,207,0.0,0.0,91,0.09,,---,0.11,VWS V14.01,2013-10-30 16:45:00,
2013-10-30 10:50:00,39.8,37.4,28.88,SSW,207,0.0,0.0,91,0.10,,---,0.12,VWS V14.01,2013-10-30 16:50:00,
2013-10-30 10:55:00,40.1,37.7,28.88,SSW,209,0.0,1.0,91,0.11,,---,0.13,VWS V14.01,2013-10-30 16:55:00,
2013-10-30 11:00:00,41.4,38.7,28.88,SSW,209,0.0,2.0,90,0.12,,---,0.14,VWS V14.01,2013-10-30 17:00:00,
2013-10-30 11:05:00,41.7,38.1,28.88,SSW,209,0.0,0.0,87,0.11,,---,0.15,VWS V14.01,2013-10-30 17:05:00,
2013-10-30 11:10:00,42.7,39.4,28.87,SSW,209,0.0,0.0,88,0.12,,---,0.16,VWS V14.01,2013-10-30 17:10:00,
2013-10-30 11:15:00,43.2,39.6,28.86,SSW,209,2.0,2.0,87,0.13,,---,0.17,VWS V14.01,2013-10-30 17:15:00,
2013-10-30 11:20:00,43.1,38.3,28.87,SW,221,0.0,5.0,83,0.14,,---,0.18,VWS V14.01,2013-10-30 17:20:00,
2013-10-30 11:25:00,42.7,37.9,28.86,SW,225,0.0,5.0,83,0.15,,---,0.19,VWS V14.01,2013-10-30 17:25:00,
2013-10-30 11:30:00,41.7,36.6,28.88,SW,227,5.0,5.0,82,0.16,,---,0.20,VWS V14.01,2013-10-30 17:30:00,
2013-10-30 11:35:00,41.1,36.3,28.88,SW,227,0.0,0.0,83,0.11,,---,0.20,VWS V14.01,2013-10-30 17:35:00,
2013-10-30 11:40:00,40.6,36.2,28.89,SW,227,0.0,1.0,84,0.11,,---,0.20,VWS V14.01,2013-10-30 17:40:00,
2013-10-30 11:45:00,40.7,36.5,28.88,SW,228,0.0,6.0,85,0.12,,---,0.21,VWS V14.01,2013-10-30 17:45:00,
2013-10-30 11:50:00,40.6,36.5,28.88,SW,228,0.0,6.0,85,0.12,,---,0.21,VWS V14.01,2013-10-30 17:50:00,
2013-10-30 11:55:00,40.3,36.2,28.90,SW,228,0.0,6.0,85,0.12,,---,0.21,VWS V14.01,2013-10-30 17:55:00,
2013-10-30 12:00:00,40.0,35.9,28.90,SW,227,0.0,6.0,85,0.13,,---,0.22,VWS V14.01,2013-10-30 18:00:00,
2013-10-30 12:05:00,39.8,35.7,28.88,SW,228,0.0,0.0,85,0.07,,---,0.22,VWS V14.01,2013-10-30 18:05:00,
2013-10-30 12:10:00,40.3,36.8,28.88,SW,228,0.0,0.0,87,0.07,,---,0.22,VWS V14.01,2013-10-30 18:10:00,
2013-10-30 12:15:00,40.9,36.5,28.88,SW,228,0.0,2.0,84,0.07,,---,0.22,VWS V14.01,2013-10-30 18:15:00,
2013-10-30 12:20:00,41.3,36.5,28.88,SW,228,0.0,2.0,83,0.07,,---,0.22,VWS V14.01,2013-10-30 18:20:00,
2013-10-30 12:25:00,43.1,38.6,28.86,SW,228,0.0,2.0,84,0.08,,---,0.23,VWS V14.01,2013-10-30 18:25:00,
2013-10-30 12:30:00,44.3,39.2,28.85,SW,227,0.0,2.0,82,0.08,,---,0.23,VWS V14.01,2013-10-30 18:30:00,
2013-10-30 12:35:00,44.7,37.9,28.85,SW,229,0.0,5.0,77,0.03,,---,0.23,VWS V14.01,2013-10-30 18:35:00,
2013-10-30 12:40:00,45.3,37.2,28.85,SW,231,5.0,7.0,73,0.03,,---,0.23,VWS V14.01,2013-10-30 18:40:00,
2013-10-30 12:45:00,44.4,36.3,28.84,SW,230,2.0,7.0,73,0.04,,---,0.24,VWS V14.01,2013-10-30 18:45:00,
2013-10-30 12:50:00,44.1,36.4,28.84,SW,231,2.0,7.0,74,0.04,,---,0.24,VWS V14.01,2013-10-30 18:50:00,
2013-10-30 12:55:00,43.6,35.9,28.84,SW,233,0.0,7.0,74,0.04,,---,0.24,VWS V14.01,2013-10-30 18:55:00,
2013-10-30 13:00:00,43.3,35.9,28.85,SW,236,0.0,7.0,75,0.04,,---,0.24,VWS V14.01,2013-10-30 19:00:00,
2013-10-30 13:05:00,42.9,35.5,28.85,SW,236,0.0,6.0,75,0.02,,---,0.24,VWS V14.01,2013-10-30 19:05:00,
2013-10-30 13:10:00,42.4,35.4,28.86,SW,236,0.0,6.0,76,0.03,,---,0.25,VWS V14.01,2013-10-30 19:10:00,
2013-10-30 13:15:00,43.2,37.5,28.84,SW,236,0.0,6.0,80,0.03,,---,0.25,VWS V14.01,2013-10-30 19:15:00,
2013-10-30 13:20:00,45.0,37.2,28.83,WSW,238,0.0,6.0,74,0.03,,---,0.25,VWS V14.01,2013-10-30 19:20:00,
2013-10-30 13:25:00,44.0,35.9,28.84,WSW,250,7.0,8.0,73,0.03,,---,0.25,VWS V14.01,2013-10-30 19:25:00,
2013-10-30 13:30:00,43.2,35.1,28.84,WNW,283,6.0,9.0,73,0.03,,---,0.25,VWS V14.01,2013-10-30 19:30:00,
2013-10-30 13:35:00,44.1,37.7,28.84,West,277,0.0,2.0,78,0.02,,---,0.25,VWS V14.01,2013-10-30 19:35:00,
2013-10-30 13:40:00,44.5,36.4,28.83,West,281,5.0,7.0,73,0.02,,---,0.25,VWS V14.01,2013-10-30 19:40:00,
2013-10-30 13:45:00,43.7,36.0,28.84,West,281,0.0,7.0,74,0.02,,---,0.25,VWS V14.01,2013-10-30 19:45:00,
2013-10-30 13:50:00,43.3,35.9,28.84,WNW,283,4.0,7.0,75,0.02,,---,0.25,VWS V14.01,2013-10-30 19:50:00,
2013-10-30 13:55:00,43.9,35.1,28.84,WNW,290,1.0,7.0,71,0.02,,---,0.25,VWS V14.01,2013-10-30 19:55:00,
2013-10-30 14:00:00,44.7,34.4,28.83,WNW,293,0.0,7.0,67,0.02,,---,0.25,VWS V14.01,2013-10-30 20:00:00,
2013-10-30 14:05:00,45.8,35.1,28.82,WNW,293,0.0,0.0,66,0.01,,---,0.25,VWS V14.01,2013-10-30 20:05:00,
2013-10-30 14:10:00,45.4,35.1,28.82,WNW,293,0.0,7.0,67,0.01,,---,0.25,VWS V14.01,2013-10-30 20:10:00,
2013-10-30 14:15:00,44.8,31.8,28.83,WNW,294,0.0,7.0,60,0.01,,---,0.25,VWS V14.01,2013-10-30 20:15:00,
2013-10-30 14:20:00,44.9,33.1,28.82,WNW,294,0.0,7.0,63,0.01,,---,0.25,VWS V14.01,2013-10-30 20:20:00,
2013-10-30 14:25:00,43.8,32.4,28.84,WNW,294,0.0,7.0,64,0.01,,---,0.25,VWS V14.01,2013-10-30 20:25:00,
2013-10-30 14:30:00,44.5,32.7,28.84,WNW,294,0.0,7.0,63,0.01,,---,0.25,VWS V14.01,2013-10-30 20:30:00,
2013-10-30 14:35:00,44.4,33.0,28.84,WNW,294,0.0,0.0,64,0.00,,---,0.25,VWS V14.01,2013-10-30 20:35:00,
2013-10-30 14:40:00,44.2,33.2,28.83,WNW,294,0.0,0.0,65,0.00,,---,0.25,VWS V14.01,2013-10-30 20:40:00,
2013-10-30 14:45:00,44.1,33.9,28.83,WNW,295,8.0,8.0,67,0.00,,---,0.25,VWS V14.01,2013-10-30 20:45:00,
2013-10-30 14:50:00,43.6,33.0,28.83,WNW,298,4.0,8.0,66,0.00,,---,0.25,VWS V14.01,2013-10-30 20:50:00,
2013-10-30 14:55:00,43.2,33.0,28.83,WNW,298,0.0,8.0,67,0.00,,---,0.25,VWS V14.01,2013-10-30 20:55:00,
2013-10-30 15:00:00,42.9,33.4,28.83,NW,307,2.0,10.0,69,0.00,,---,0.25,VWS V14.01,2013-10-30 21:00:00,
2013-10-30 15:05:00,42.5,33.8,28.85,NW,307,0.0,0.0,71,0.00,,---,0.25,VWS V14.01,2013-10-30 21:05:00,
2013-10-30 15:10:00,42.6,34.2,28.83,NW,306,0.0,8.0,72,0.00,,---,0.25,VWS V14.01,2013-10-30 21:10:00,
2013-10-30 15:15:00,42.7,34.3,28.84,NW,306,4.0,8.0,72,0.00,,---,0.25,VWS V14.01,2013-10-30 21:15:00,
2013-10-30 15:20:00,42.2,34.5,28.85,NW,309,1.0,8.0,74,0.00,,---,0.25,VWS V14.01,2013-10-30 21:20:00,
2013-10-30 15:25:00,41.6,35.6,28.85,NW,310,0.0,8.0,79,0.00,,---,0.25,VWS V14.01,2013-10-30 21:25:00,
2013-10-30 15:30:00,41.4,35.4,28.85,NW,310,0.0,8.0,79,0.00,,---,0.25,VWS V14.01,2013-10-30 21:30:00,
2013-10-30 15:35:00,42.4,35.0,28.85,NW,310,0.0,0.0,75,0.00,,---,0.25,VWS V14.01,2013-10-30 21:35:00,
2013-10-30 15:40:00,42.3,33.6,28.85,NW,311,0.0,0.0,71,0.00,,---,0.25,VWS V14.01,2013-10-30 21:40:00,
2013-10-30 15:45:00,42.3,32.9,28.85,NW,311,0.0,0.0,69,0.00,,---,0.25,VWS V14.01,2013-10-30 21:45:00,
2013-10-30 15:50:00,42.5,33.4,28.85,NW,310,0.0,5.0,70,0.00,,---,0.25,VWS V14.01,2013-10-30 21:50:00,
2013-10-30 15:56:00,42.6,32.8,28.84,NW,311,0.0,6.0,68,0.00,,---,0.25,VWS V14.01,2013-10-30 21:56:00,
2013-10-30 16:00:00,42.5,33.1,28.83,NW,307,0.0,10.0,69,0.00,,---,0.25,VWS V14.01,2013-10-30 22:00:00,
2013-10-30 16:01:00,42.3,32.9,28.85,NW,311,0.0,6.0,69,0.00,,---,0.25,VWS V14.01,2013-10-30 22:01:00,
2013-10-30 16:06:00,41.8,33.5,28.85,NW,309,0.0,8.0,72,0.00,,---,0.25,VWS V14.01,2013-10-30 22:06:00,
2013-10-30 16:11:00,41.1,34.1,28.86,NW,309,0.0,8.0,76,0.01,,---,0.26,VWS V14.01,2013-10-30 22:11:00,
2013-10-30 16:15:00,40.5,34.5,28.86,NW,309,0.0,8.0,79,0.01,,---,0.26,VWS V14.01,2013-10-30 22:15:00,
2013-10-30 16:20:00,40.2,34.8,28.87,NW,309,0.0,8.0,81,0.01,,---,0.26,VWS V14.01,2013-10-30 22:20:00,
2013-10-30 16:25:00,39.9,34.5,28.88,NW,309,0.0,8.0,81,0.01,,---,0.26,VWS V14.01,2013-10-30 22:25:00,
2013-10-30 16:30:00,39.9,34.9,28.87,NW,309,0.0,8.0,82,0.01,,---,0.26,VWS V14.01,2013-10-30 22:30:00,
2013-10-30 16:35:00,39.9,34.9,28.87,NW,309,0.0,0.0,82,0.01,,---,0.26,VWS V14.01,2013-10-30 22:35:00,
2013-10-30 16:40:00,40.1,35.4,28.87,NW,309,0.0,0.0,83,0.01,,---,0.26,VWS V14.01,2013-10-30 22:40:00,
2013-10-30 16:45:00,39.9,34.5,28.87,NW,308,0.0,1.0,81,0.01,,---,0.26,VWS V14.01,2013-10-30 22:45:00,
2013-10-30 16:50:00,39.7,34.4,28.86,NW,308,0.0,1.0,81,0.01,,---,0.26,VWS V14.01,2013-10-30 22:50:00,
2013-10-30 16:55:00,39.6,34.0,28.86,NW,308,0.0,1.0,80,0.01,,---,0.26,VWS V14.01,2013-10-30 22:55:00,
2013-10-30 17:00:00,39.6,34.3,28.86,NW,308,0.0,1.0,81,0.01,,---,0.26,VWS V14.01,2013-10-30 23:00:00,
2013-10-30 17:06:00,39.8,34.5,28.86,NW,307,0.0,0.0,81,0.01,,---,0.26,VWS V14.01,2013-10-30 23:06:00,
2013-10-30 17:11:00,40.0,34.3,28.87,NW,308,0.0,0.0,80,0.01,,---,0.26,VWS V14.01,2013-10-30 23:11:00,
2013-10-30 17:16:00,40.6,34.6,28.85,NW,308,0.0,1.0,79,0.01,,---,0.26,VWS V14.01,2013-10-30 23:16:00,
2013-10-30 17:21:00,41.3,35.0,28.85,NW,308,0.0,1.0,78,0.01,,---,0.26,VWS V14.01,2013-10-30 23:21:00,
2013-10-30 17:26:00,41.8,34.8,28.85,NW,307,0.0,1.0,76,0.01,,---,0.26,VWS V14.01,2013-10-30 23:26:00,
2013-10-30 17:30:00,39.9,35.2,28.87,NW,309,0.0,8.0,83,0.01,,---,0.26,VWS V14.01,2013-10-30 23:30:00,
2013-10-30 17:31:00,42.2,33.8,28.85,NW,307,0.0,1.0,72,0.01,,---,0.26,VWS V14.01,2013-10-30 23:31:00,
2013-10-30 17:36:00,42.0,34.0,28.85,NW,307,0.0,0.0,73,0.00,,---,0.26,VWS V14.01,2013-10-30 23:36:00,
2013-10-30 17:41:00,41.8,33.5,28.85,NW,307,0.0,0.0,72,0.00,,---,0.26,VWS V14.01,2013-10-30 23:41:00,
2013-10-30 17:46:00,41.7,34.0,28.86,NW,307,0.0,0.0,74,0.00,,---,0.26,VWS V14.01,2013-10-30 23:46:00,
2013-10-30 17:51:00,41.8,34.1,28.86,NW,307,0.0,0.0,74,0.00,,---,0.26,VWS V14.01,2013-10-30 23:51:00,
2013-10-30 17:56:00,41.4,33.8,28.86,NW,307,0.0,0.0,74,0.00,,---,0.26,VWS V14.01,2013-10-30 23:56:00,
2013-10-30 18:00:00,39.7,34.4,28.87,NW,308,0.0,1.0,81,0.01,,---,0.26,VWS V14.01,2013-10-31 00:00:00,
2013-10-30 18:01:00,40.8,33.2,28.86,NW,307,0.0,0.0,74,0.00,,---,0.26,VWS V14.01,2013-10-31 00:01:00,
2013-10-30 18:06:00,40.2,33.2,28.87,NW,307,0.0,0.0,76,0.00,,---,0.26,VWS V14.01,2013-10-31 00:06:00,
2013-10-30 18:11:00,39.5,32.9,28.87,NW,307,0.0,0.0,77,0.00,,---,0.26,VWS V14.01,2013-10-31 00:11:00,
2013-10-30 18:16:00,38.9,32.6,28.87,NW,307,0.0,0.0,78,0.00,,---,0.26,VWS V14.01,2013-10-31 00:16:00,
2013-10-30 18:21:00,38.3,32.4,28.89,NW,307,0.0,0.0,79,0.00,,---,0.26,VWS V14.01,2013-10-31 00:21:00,
2013-10-30 18:26:00,37.7,31.8,28.89,NW,307,0.0,0.0,79,0.00,,---,0.26,VWS V14.01,2013-10-31 00:26:00,
2013-10-30 18:30:00,36.8,31.5,28.89,North,0,0.0,0.0,81,0.00,,---,0.26,VWS V14.01,2013-10-31 00:30:00,
2013-10-30 19:00:00,34.8,29.9,28.92,NW,315,0.0,1.0,82,0.00,,---,0.26,VWS V14.01,2013-10-31 01:00:00,
2013-10-30 19:30:00,35.7,29.2,28.92,NW,315,0.0,5.0,77,0.00,,---,0.26,VWS V14.01,2013-10-31 01:30:00,
2013-10-30 20:00:00,36.3,29.1,28.93,NW,315,0.0,3.0,75,0.00,,---,0.26,VWS V14.01,2013-10-31 02:00:00,
2013-10-30 20:30:00,34.9,29.1,28.94,NW,315,0.0,1.0,79,0.00,,---,0.26,VWS V14.01,2013-10-31 02:30:00,
2013-10-30 21:00:00,34.4,29.5,28.94,NW,315,0.0,0.0,82,0.00,,---,0.26,VWS V14.01,2013-10-31 03:00:00,
2013-10-30 21:30:00,35.8,30.2,28.92,NW,315,0.0,0.0,80,0.00,,---,0.26,VWS V14.01,2013-10-31 03:30:00,
2013-10-30 22:00:00,36.0,31.0,28.93,NW,315,0.0,0.0,82,0.00,,---,0.26,VWS V14.01,2013-10-31 04:00:00,
2013-10-30 22:30:00,36.5,31.8,28.90,NW,315,0.0,0.0,83,0.00,,---,0.26,VWS V14.01,2013-10-31 04:30:00,
2013-10-30 23:00:00,37.2,32.8,28.91,NW,315,0.0,0.0,84,0.00,,---,0.26,VWS V14.01,2013-10-31 05:00:00,
2013-10-30 23:30:00,37.1,32.7,28.92,NW,315,0.0,2.0,84,0.00,,---,0.26,VWS V14.01,2013-10-31 05:30:00,